Weather History for McAlester, OK

Change the Weather History Date:

Monday, January 27, 2014

  Actual Average Record
Temperature  
Mean Temperature 29 °F -  
Max Temperature 39 °F 50 °F 76 °F (1975)
Min Temperature 19 °F 29 °F 4 °F (1963)
Degree Days  
Heating Degree Days 36    
Moisture  
Dew Point -1 °F    
Average Humidity 33    
Maximum Humidity 49    
Minimum Humidity 21    
Precipitation  
Precipitation 0.00 in - - ()
Sea Level Pressure  
Sea Level Pressure 30.32 in    
Wind  
Wind Speed 23 mph (NNE)    
Max Wind Speed 34 mph    
Max Gust Speed 52 mph    
Visibility 10 miles    
Events Snow    
Averages and records for this station are not official NWS values.
T = Trace of Precipitation, MM = Missing Value Source: NWS Daily Summary

Daily Weather History Graph

Daily Weather History Graph

Search for Another Location

Airport:

Trip Planner

Search our weather history database for the weather conditions in past years. The results will help you decide how hot, cold, wet, or windy it might be!

Date:

Astronomy

Jan. 27, 2014 Rise Set
Actual Time 7:25 AM CST 5:47 PM CST
Civil Twilight 6:58 AM CST 6:13 PM CST
Nautical Twilight 6:27 AM CST 6:44 PM CST
Astronomical Twilight 5:57 AM CST 7:14 PM CST
Moon 4:05 AM CST (1/27) 2:35 PM CST (1/27)
Length of Visible Light 11h 15m
Length of Day
10h 22m
Waning Crescent, 14% of the Moon is Illuminated
Jan 27
Waning Crescent
Jan 30
New
Feb 6
First Quarter
Feb 14
Full
Feb 22
Last Quarter

Hourly Weather History & Observations

Time (CST) Temp. Windchill Dew Point Humidity Pressure Visibility Wind Dir Wind Speed Gust Speed Precip Events Conditions
12:53 AM 39.9 °F 27.6 °F 21.9 °F 49% 29.99 in 10.0 mi North 34.5 mph 51.8 mph N/A   Scattered Clouds
1:53 AM 37.0 °F 24.9 °F 19.0 °F 48% 30.05 in 9.0 mi North 27.6 mph 41.4 mph 0.00 in Snow Light Snow
2:53 AM 34.0 °F 21.5 °F 8.1 °F 34% 30.09 in 9.0 mi NNE 24.2 mph 41.4 mph 0.00 in Snow Light Snow
3:53 AM 32.0 °F 19.2 °F 6.1 °F 34% 30.14 in 9.0 mi North 23.0 mph 34.5 mph 0.00 in Snow Light Snow
4:53 AM 28.0 °F 14.6 °F 3.0 °F 34% 30.19 in 9.0 mi North 20.7 mph 34.5 mph 0.00 in Snow Light Snow
5:53 AM 26.1 °F 10.7 °F -0.0 °F 32% 30.23 in 9.0 mi North 25.3 mph 36.8 mph 0.00 in Snow Light Snow
6:53 AM 24.1 °F 8.0 °F 1.0 °F 37% 30.27 in 10.0 mi NNE 25.3 mph 33.4 mph 0.00 in Snow Light Snow
7:53 AM 23.0 °F 8.0 °F -2.9 °F 32% 30.32 in 10.0 mi North 20.7 mph 32.2 mph 0.00 in   Partly Cloudy
8:53 AM 24.1 °F 8.0 °F -2.0 °F 32% 30.34 in 9.0 mi North 25.3 mph 31.1 mph 0.00 in   Clear
9:53 AM 26.1 °F 12.0 °F -2.0 °F 30% 30.38 in 10.0 mi NNE 20.7 mph 29.9 mph 0.00 in   Partly Cloudy
10:53 AM 25.0 °F 10.2 °F -5.1 °F 27% 30.40 in 10.0 mi NNE 21.9 mph 35.7 mph 0.00 in Snow Light Snow
11:53 AM 28.0 °F 14.6 °F -8.0 °F 21% 30.39 in 10.0 mi NNE 20.7 mph 28.8 mph 0.00 in   Clear
12:53 PM 27.0 °F 12.2 °F -9.0 °F 21% 30.37 in 10.0 mi NNE 24.2 mph 29.9 mph 0.00 in   Partly Cloudy
1:53 PM 25.0 °F 12.2 °F -7.1 °F 24% 30.37 in 10.0 mi NNE 16.1 mph 29.9 mph N/A   Overcast
2:53 PM 23.0 °F 9.2 °F -8.0 °F 25% 30.38 in 10.0 mi NNE 17.3 mph 26.5 mph N/A   Overcast
3:53 PM 21.9 °F 8.7 °F -8.0 °F 27% 30.38 in 10.0 mi NNE 15.0 mph 26.5 mph N/A   Overcast
4:53 PM 21.0 °F 6.6 °F -6.0 °F 30% 30.39 in 10.0 mi NNE 17.3 mph 24.2 mph N/A   Overcast
5:53 PM 19.9 °F 5.2 °F -5.1 °F 33% 30.40 in 10.0 mi NNE 17.3 mph 23.0 mph N/A   Overcast
6:53 PM 19.9 °F 7.9 °F -4.0 °F 35% 30.41 in 10.0 mi NNE 11.5 mph 19.6 mph N/A   Overcast
7:53 PM 19.9 °F 6.7 °F -2.9 °F 37% 30.41 in 10.0 mi North 13.8 mph - N/A   Overcast
8:53 PM 19.9 °F 6.7 °F -2.9 °F 37% 30.42 in 10.0 mi North 13.8 mph 20.7 mph N/A   Overcast
9:53 PM 19.9 °F 7.3 °F -2.9 °F 37% 30.42 in 10.0 mi NNE 12.7 mph 21.9 mph N/A   Overcast
10:53 PM 19.9 °F 5.7 °F -2.0 °F 38% 30.44 in 10.0 mi North 16.1 mph - N/A   Overcast
11:53 PM 19.9 °F 6.7 °F -2.0 °F 38% 30.44 in 10.0 mi NNE 13.8 mph 21.9 mph N/A   Overcast